"Pseudo-MPEC" for P12oZkF

Created 2026 Aug 14 19:35:08 UT using Find_Orb

Click here for an explanation of pseudo-MPECs

 
 Astrometry: 
     P12oZkF 0C2026 08 07.43685721 39 52.571-16 30 47.27   ~8E1K 20.93GVNEOCPF51
     P12oZkF 0C2026 08 07.44684321 39 49.171-16 29 40.78   ~8E1K 21.02GVNEOCPF51
     P12oZkF*0C2026 08 08.45560021 34 27.781-14 37 55.72   ~88D5 20.98wXNEOCPF51
     P12oZkF 0C2026 08 08.46714021 34 23.934-14 36 38.67   ~88D5 21.29wXNEOCPF51
     P12oZkF 0C2026 08 08.47826921 34 20.214-14 35 24.64   ~88D5 21.49wXNEOCPF51
     P12oZkF 0C2026 08 08.48939221 34 16.516-14 34 10.42   ~88D5 20.67wXNEOCPF51
     P12oZkF 0C2026 08 08.56628921 33 51.035-14 25 36.39   ~88H5 20.92GVNEOCPF51
     P12oZkF 0C2026 08 08.56711221 33 50.804-14 25 31.43   ~88H5 20.69GVNEOCPF51
     P12oZkF KC2026 08 09.24413121 30 20.73 -13 10 40.1    ~896Z 21.1 GVNEOCPH21
     P12oZkF KC2026 08 09.24701921 30 19.80 -13 10 20.5    ~896Z 20.9 GVNEOCPH21
     P12oZkF KC2026 08 09.24990721 30 18.86 -13 10 01.5    ~896Z 20.8 GVNEOCPH21
     P12oZkF  C2026 08 09.29361821 30 05.389-13 05 08.18   ~897o 21.0 GWNEOCPH01
     P12oZkF  C2026 08 09.29793121 30 03.976-13 04 39.50   ~897o 21.0 GWNEOCPH01
     P12oZkF  C2026 08 09.31227021 29 59.291-13 03 04.44   ~897o 20.6 GWNEOCPH01
     P12oZkF  C2026 08 09.31584021 29 58.123-13 02 40.53   ~897o 20.3 GWNEOCPH01
     P12oZkF KB2026 08 10.95106521 21 38.28 -10 02 34.4    ~8ANZ 20.0 GVNEOCPL01
     P12oZkF KB2026 08 10.96319821 21 34.51 -10 01 15.0    ~8ANZ 20.6 GVNEOCPL01
     P12oZkF 1C2026 08 11.89821021 16 57.605-08 19 39.40   ~8BMK 20.2 GXNEOCP033
     P12oZkF 1C2026 08 11.89986021 16 57.115-08 19 28.80   ~8BMK 20.0 GXNEOCP033
     P12oZkF 1C2026 08 11.90150021 16 56.647-08 19 18.09   ~8BMK 20.4 GXNEOCP033
     P12oZkF 1C2026 08 11.90313021 16 56.125-08 19 07.40   ~8BMK 20.7 GXNEOCP033
     P12oZkF 1C2026 08 12.86187021 12 18.778-06 36 30.60   ~8CL5 20.1 GXNEOCP033
     P12oZkF 1C2026 08 12.86479021 12 17.968-06 36 12.00   ~8CL5 20.1 GXNEOCP033
     P12oZkF 1C2026 08 12.86626021 12 17.507-06 36 03.00   ~8CL5 20.0 GXNEOCP033
     P12oZkF KB2026 08 12.95059721 11 53.01 -06 27 03.7    ~8CNo 20.8 GXNEOCPI93
     P12oZkF KB2026 08 12.96146521 11 49.71 -06 25 55.1    ~8CNo 20.4 GXNEOCPI93
     P12oZkF KB2026 08 12.97219521 11 46.52 -06 24 46.9    ~8CNo 20.5 GXNEOCPI93
     P12oZkF 0C2026 08 13.46553121 09 26.040-05 32 37.47   ~8E1K 21.16GVNEOCPF51
     P12oZkF 0C2026 08 13.46833521 09 25.202-05 32 19.62   ~8E1K 19.39GVNEOCPF51
     P12oZkF 1C2026 08 13.95075021 07 11.507-04 42 24.30   ~8DN5 20.4 GXNEOCP033
     P12oZkF 1C2026 08 13.95222021 07 11.075-04 42 15.30   ~8DN5 20.6 GXNEOCP033
     P12oZkF 1C2026 08 13.95368021 07 10.664-04 42 06.10   ~8DN5 20.3 GXNEOCP033

Station data:
(033) Karl Schwarzschild Observatory, Tautenburg  (N50.980139 E11.711240)
   Germany.  Observer B. Stecklum. 1.34-m f/3 Schmidt + CCD.
(F51) Pan-STARRS 1, Haleakala  (N20.707234 W156.255910)  US/Hawaii.
   Observers J. Herman, T. Lowe, P. Minguez, A. Schultz, I. Smith. Measurers
   K. Chambers, T. de Boer, J. Fairlamb, H. Gao, M. Huber, C.-C. Lin, E.
   Magnier, Y. Ramanjooloo, R. Wainscoat, R. Weryk. 1.8-m Ritchey-Chrétien +
   CCD.
(H01) Magdalena Ridge Observatory, Socorro  (N33.984833 W107.189333)  US/New
   Mexico.  Observers W. H. Ryan, E. V. Ryan. Measurer W. H. Ryan. 2.4-m
   f/8.9 reflector + CCD.
(H21) Astronomical Research Observatory, Westfield  (N39.483054 W87.968270)
   US/Illinois.  Observer R. Holmes. Measurers S. Foglia, L. Buzzi, T.
   Linder, R. Holmes. 0.40-m f/5.32 astrograph + CCD.
(I93) St Pardon de Conques  (N44.558670 W0.202960)  France.  Observers F.
   Losse, W. D'Anna. Measurer F. Losse. 0.40-m f/3.7 reflector + CCD.
(L01) Višnjan Observatory, Tičan  (N45.290897 E13.749300)  Croatia.
   Observers K. Korlević, L. Poropat. Measurer K. Korlevic. 1.0-m f/2.9
   reflector + CCD.

Orbital elements:  P12oZkF
   Perihelion 2026 Jul 18.760807 +/- 0.128 TT = 18:15:33.7 (JD 2461240.260807)
Epoch 2026 Aug 13.0 TT = JDT 2461265.5   Earth MOID: 0.1994   Ma: 0.0403
M  14.813240010 +/- 0.14            (J2000 ecliptic)             AutoNEOCP
n   0.586914163 +/- 0.00274         Peri.  343.548372 +/- 0.10
a   1.412818335 +/- 0.00439         Node   316.544530 +/- 0.0037
e   0.14508072 +/- 0.00196          Incl.   27.014616 +/- 0.13
P   1.679/613.366d         H 23.40  G  0.15   U  8.8
q 1.207845633 +/- 0.000986    Q 1.617791037 +/- 0.0078
From 32 observations 2026 Aug. 7-13; mean residual 0".23
Residuals in arcseconds: 
260807 F51  .09+  .17-    260809 H01  .12+  .04+    260812 033  .25+  .17-    
260807 F51  .17-  .16+    260809 H01  .06+  .08+    260812 033  .15-  .51-    
260808 F51  .05-  .05-    260809 H01  .06+  .14-    260812 I93  .56+  .20+    
260808 F51  .01-  .16+    260809 H01  .04+  .04+    260812 I93  .42-  .18-    
260808 F51  .14-  .04+    260810 L01  .19-  .31+    260812 I93  .35-  .08-    
260808 F51  .03-  .09+    260810 L01  .28+  .11+    260813 F51  .09+  .09-    
260808 F51  .25-  .14+    260811 033  .43-  .07+    260813 F51  .01+  .13+    
260808 F51  .32+  .42-    260811 033  .26-  .00     260813 033  .10-  .02-    
260809 H21  .26+  .23-    260811 033  .19+  .10+    260813 033  .23-  .15-    
260809 H21  .42+  .18+    260811 033  .20-  .25+    260813 033  .09-  .01-    
260809 H21  .44+  .01-    260812 033  .53-  .22-    

Ephemerides (geocentric):
Date (UTC) HH   RA             Dec           delta  r     elong  mag " sig PA
---- --------  ------------   ------------  ------ ------ -----  --- --------
2026 08 14 20  21 03 10.704   -03 11 35.31  .21056 1.2185 166.2 21.1 .089 123
2026 08 14 21  21 02 59.506   -03 07 22.95  .21067 1.2185 166.1 21.2 .095 126
2026 08 14 22  21 02 48.324   -03 03 10.89  .21079 1.2185 166.0 21.2 .101 128
2026 08 14 23  21 02 37.158   -02 58 59.13  .21090 1.2186 166.0 21.2 .108 129
2026 08 15 00  21 02 26.008   -02 54 47.68  .21102 1.2186 165.9 21.2 .114 131
2026 08 15 01  21 02 14.873   -02 50 36.54  .21113 1.2186 165.8 21.2 .122 132
2026 08 15 02  21 02 03.753   -02 46 25.71  .21125 1.2187 165.7 21.2 .129 134
2026 08 15 03  21 01 52.650   -02 42 15.18  .21136 1.2187 165.6 21.2 .136 135
2026 08 15 04  21 01 41.562   -02 38 04.97  .21148 1.2187 165.5 21.2 .144 136
2026 08 15 05  21 01 30.489   -02 33 55.07  .21160 1.2188 165.4 21.2 .152 137
2026 08 15 06  21 01 19.433   -02 29 45.48  .21171 1.2188 165.3 21.2 .159 138
2026 08 15 07  21 01 08.392   -02 25 36.21  .21183 1.2188 165.2 21.2 .168 138
2026 08 15 08  21 00 57.367   -02 21 27.26  .21195 1.2189 165.1 21.2 .176 139
2026 08 15 09  21 00 46.358   -02 17 18.62  .21207 1.2189 165.0 21.2 .184 140
2026 08 15 10  21 00 35.365   -02 13 10.30  .21219 1.2189 164.9 21.2 .193 140
2026 08 15 11  21 00 24.387   -02 09 02.30  .21231 1.2190 164.8 21.2 .202 141
2026 08 15 12  21 00 13.425   -02 04 54.62  .21244 1.2190 164.7 21.2 .210 141
2026 08 15 13  21 00 02.480   -02 00 47.27  .21256 1.2190 164.6 21.2 .219 142
2026 08 15 14  20 59 51.550   -01 56 40.24  .21268 1.2191 164.5 21.2 .229 142
2026 08 15 15  20 59 40.636   -01 52 33.53  .21280 1.2191 164.4 21.2 .238 143
2026 08 15 16  20 59 29.738   -01 48 27.15  .21293 1.2191 164.3 21.2 .247 143
2026 08 15 17  20 59 18.856   -01 44 21.09  .21305 1.2192 164.2 21.2 .257 143
2026 08 15 18  20 59 07.990   -01 40 15.36  .21318 1.2192 164.1 21.2 .267 143
2026 08 15 19  20 58 57.140   -01 36 09.96  .21330 1.2192 164.0 21.2 .277 144
2026 08 15 20  20 58 46.306   -01 32 04.90  .21343 1.2193 163.9 21.2 .287 144
2026 08 15 21  20 58 35.488   -01 28 00.16  .21356 1.2193 163.8 21.3 .297 144
2026 08 15 22  20 58 24.686   -01 23 55.76  .21368 1.2193 163.7 21.3 .307 144
2026 08 15 23  20 58 13.901   -01 19 51.68  .21381 1.2194 163.6 21.3 .318 145
2026 08 16 00  20 58 03.131   -01 15 47.95  .21394 1.2194 163.5 21.3 .328 145
2026 08 16 01  20 57 52.378   -01 11 44.55  .21407 1.2194 163.5 21.3 .339 145
2026 08 16 02  20 57 41.640   -01 07 41.48  .21420 1.2195 163.4 21.3 .350 145
2026 08 16 03  20 57 30.919   -01 03 38.76  .21433 1.2195 163.3 21.3 .361 145
2026 08 16 04  20 57 20.214   -00 59 36.37  .21446 1.2195 163.2 21.3 .372 145
2026 08 16 05  20 57 09.525   -00 55 34.32  .21459 1.2196 163.1 21.3 .384 145
2026 08 16 06  20 56 58.852   -00 51 32.61  .21472 1.2196 163.0 21.3 .395 146
2026 08 16 07  20 56 48.196   -00 47 31.25  .21486 1.2196 162.9 21.3 .407 146
2026 08 16 08  20 56 37.556   -00 43 30.22  .21499 1.2197 162.8 21.3 .418 146
2026 08 16 09  20 56 26.932   -00 39 29.54  .21512 1.2197 162.7 21.3 .430 146
2026 08 16 10  20 56 16.324   -00 35 29.21  .21526 1.2197 162.6 21.3 .442 146
2026 08 16 11  20 56 05.733   -00 31 29.22  .21539 1.2198 162.5 21.3 .455 146
2026 08 16 12  20 55 55.158   -00 27 29.58  .21553 1.2198 162.4 21.3 .467 146
2026 08 16 13  20 55 44.599   -00 23 30.28  .21566 1.2198 162.3 21.3 .480 146
2026 08 16 14  20 55 34.057   -00 19 31.33  .21580 1.2199 162.2 21.3 .492 146
2026 08 16 15  20 55 23.531   -00 15 32.73  .21594 1.2199 162.1 21.3 .505 146
2026 08 16 16  20 55 13.021   -00 11 34.49  .21607 1.2199 162.0 21.3 .518 146
2026 08 16 17  20 55 02.528   -00 07 36.59  .21621 1.2200 161.9 21.3 .531 146
2026 08 16 18  20 54 52.051   -00 03 39.04  .21635 1.2200 161.8 21.3 .544 146
2026 08 16 19  20 54 41.591   +00 00 18.15  .21649 1.2200 161.7 21.3 .558 146